weather.gov     
National Weather Service

Terminal Aerodrome Forecast
NWS Homepage
This page is being discontinued on March 12, 2014.
The same data is available at this site. Please update your bookmarks.
Thank you, and we apologize for the inconvenience.
Please send an email to SR-SRH.Webmaster@noaa.gov with any concerns.


Current Version
Previous Version:    01  02  03  04  05  06  07  08  09  10  11  12  13  14  15  16  17  18  19  20  21  22  23  24  25  
[Printable]
548
FTUS44 KOUN 311720
TAFOUN
TAF
KOUN 311720Z 3118/0118 03010KT P6SM BKN017
     FM312100 03011KT P6SM BKN035
     FM010100 06004KT P6SM SCT050
     FM010900 01005KT 4SM BR SCT006
     FM011300 01005KT P6SM SCT100=




548
FTUS44 KOUN 311720
TAFOUN
TAF
KOUN 311720Z 3118/0118 03010KT P6SM BKN017
     FM312100 03011KT P6SM BKN035
     FM010100 06004KT P6SM SCT050
     FM010900 01005KT 4SM BR SCT006
     FM011300 01005KT P6SM SCT100=


U.S. Dept. of Commerce
NOAA National Weather Service
1325 East West Highway
Silver Spring, MD 20910
E-mail: w-nws.webmaster@noaa.gov
Page last modified: May 16, 2007
NATIONAL WEATHER SERVICE: for Safety, for Work, for Fun - FOR LIFE